Regional Weather Roundup
Issued by NWS

Home | Current Version | Previous Version | Graphics & Text | Print | Product List | Glossary On
Versions: 1 2 3 4 5 6 7 8 9 10 11 12 13 14 15 16 17 18 19 20 21 22 23 24 25 26 27 28 29 30 31 32 33 34 35 36 37 38 39 40 41 42 43 44 45 46 47 48 49 50
000
ASUS43 KMKX 251921
RWRWI

WISCONSIN REGIONAL WEATHER ROUNDUP
NATIONAL WEATHER SERVICE MILWAUKEE/SULLIVAN WI
200 PM CDT MON MAY 25 2015

NOTE: "FAIR" INDICATES FEW OR NO CLOUDS BELOW 12,000 FEET WITH NO
SIGNIFICANT WEATHER AND/OR OBSTRUCTIONS TO VISIBILITY.

WIZ001-002-006>008-014>016-023>028-252000-
NORTHWEST WISCONSIN

CITY           SKY/WX    TMP DP  RH WIND       PRES   REMARKS
SUPERIOR ARPT  CLOUDY    47  46  99 NE7G16    29.71R FOG
ASHLAND        CLOUDY    53  51  93 N3        29.69S
HAYWARD        CLOUDY    61  59  93 SW7       29.69R
SIREN          CLOUDY    63  60  89 SW16G22   29.69S
CUMBERLAND     CLOUDY    63  55  77 SW18G26   29.71R
RICE LAKE      CLOUDY    67  58  73 SW12G18   29.72R
CHETEK         CLOUDY    66  60  80 SW9G18    29.71R
LADYSMITH      CLOUDY    66  62  87 SW8       29.72S
EAU CLAIRE     CLOUDY    69  59  70 SW15G24   29.71S
MENOMONIE      CLOUDY    69  59  70 S15       29.71S
NEW RICHMOND   CLOUDY    66  59  78 W9G18     29.71S
OSCEOLA        CLOUDY    65  60  84 SW15      29.74R
$$

WIZ003>005-009-010-017-018-252000-
NORTH CENTRAL WISCONSIN

CITY           SKY/WX    TMP DP  RH WIND       PRES   REMARKS
MANITOWISH WTR CLOUDY    64  63  95 SW14      29.68S
ARBOR VITAE    CLOUDY    64  62  91 SW13G20   29.69S
WOODRUFF       CLOUDY    64  62  91 SW13G20   29.69S
RHINELANDER    CLOUDY    66  60  81 SW14G24   29.71S
EAGLE RIVER    CLOUDY    64  64  98 SW8       29.68F
LAND O LAKES   CLOUDY    63  62  96 SW7       29.69S FOG
PHILLIPS       CLOUDY    62  60  93 SW10      29.70R
TOMAHAWK       CLOUDY    64  59  83 W5        29.72R
MEDFORD        CLOUDY    64  61  88 SW10G20   29.74R
MERRILL        CLOUDY    67  62  85 SW12G24   29.73R
$$

WIZ029-030-035-036-043>047-252000-
CENTRAL WISCONSIN

CITY           SKY/WX    TMP DP  RH WIND       PRES   REMARKS
WAUSAU         CLOUDY    70  61  73 W15G28    29.72R
MOSINEE        CLOUDY    68  63  83 SW14      29.75R
MARSHFIELD     CLOUDY    68  59  73 SW15G22   29.75R
STEVENS POINT  CLOUDY    69  60  73 W18G24    29.75R
WAUPACA        CLOUDY    74  63  66 SW13G25   29.75R
WAUTOMA        PTSUNNY   75  63  66 SW22G29   29.77R
WISC RAPIDS    CLOUDY    73  58  59 W18G30    29.76S
CAMP DOUGLAS   MOSUNNY   74  67  77 SW20G26   29.76S
$$

WIZ011>013-019>022-031-037>040-048>050-252000-
NORTHEAST WISCONSIN

CITY           SKY/WX    TMP DP  RH WIND       PRES   REMARKS
ANTIGO         CLOUDY    66  63  89 W13G23    29.73R
SHAWANO        CLOUDY    73  64  73 W14       29.73R
OCONTO         CLOUDY    71  66  85 W7        29.70S
STURGEON BAY   CLOUDY    72  63  73 SW17G24   29.74S
GREEN BAY      PTSUNNY   74  64  71 SW18G26   29.74R
MANITOWOC      CLOUDY    75  64  68 SW17G24   29.76S
APPLETON       NOT AVBL
CLINTONVILLE   CLOUDY    72  61  68 W16G24    29.73R
OSHKOSH        PTSUNNY   72  62  71 SW14G25   29.77R
$$

WIZ032>034-041-042-053>061-252000-
SOUTHWEST WISCONSIN

CITY           SKY/WX    TMP DP  RH WIND       PRES   REMARKS
LA CROSSE      MOSUNNY   79  61  53 SW16      29.74S HX  80
SPARTA         MOSUNNY   75  59  55 SW13G21   29.76F
VIROQUA        CLOUDY    72  62  72 SW12G21   29.79F
BOSCOBEL       PTSUNNY   76  64  66 SW13      29.80S
PRAIRIE DU CHI PTSUNNY   76  61  59 SW14G24   29.80R
PLATTEVILLE    PTSUNNY   74  65  72 SW21      29.85R
$$

WIZ056-057-062-063-064-067-068-252000-
SOUTH CENTRAL WISCONSIN

CITY           SKY/WX    TMP DP  RH WIND       PRES   REMARKS
REEDSBURG      PTSUNNY   73  64  71 SW15G24   29.79S
BARABOO/DELLS  PTSUNNY   72  61  68 SW13G24   29.80S
LONE ROCK      MOSUNNY   76  64  66 SW13G18   29.80F
MINERAL POINT  PTSUNNY   75  64  69 SW20      29.84R
MADISON        PTSUNNY   73  61  65 SW12G20   29.82R
MIDDLETON      PTSUNNY   74  60  61 W16G22    29.83S
WATERTOWN      MOSUNNY   74  65  73 SW18G24   29.81F
MONROE         PTSUNNY   73  63  68 SW21G28   29.86S
JANESVILLE     PTSUNNY   77  61  57 SW20G25   29.85S
$$

WIZ051-052-058>065-066-070>072-252000-
SOUTHEAST WISCONSIN

CITY           SKY/WX    TMP DP  RH WIND       PRES   REMARKS
MILWAUKEE      PTSUNNY   75  61  61 SW15G28   29.83S
WAUKESHA       PTSUNNY   72  61  68 SW16G23   29.84S
MILWAUKEE/TIMM PTSUNNY   75  61  60 SW16G26   29.83R
RACINE         PTSUNNY   75  62  64 SW17G29   29.86R
BURLINGTON     PTSUNNY   72  61  67 SW18G25   29.85S
KENOSHA          N/A     74  63  68 SW20G31   29.85S
FOND DU LAC    CLOUDY    71  63  75 SW16G24   29.80R
SHEBOYGAN      CLOUDY    71  65  81 SW12G26   29.79R
WEST BEND      PTSUNNY   73  59  60 SW16G24   29.81R
JUNEAU         PTSUNNY   73  63  72 SW16G25   29.82F
$$

LSZ147-162-252000-
LAKE SUPERIOR

STATION/POSITION TIME  TEMP    WIND        PRES    WAVE
                       AIR SEA DIR/SP/G            HT/PER
                 (UTC) (F)     (DEG/KT/KT) (MB)    (FT/S)
W MID LAKE BUOY  1850   40 36   30/ 14/ 16 1051.0F   3/ 5
DEVILS ISLAND    1900   43      70/ 11/ 13 1058.0R
PORT WING        1840   44      30/ 15/ 17 1054.0S
SAXON HARBOR     1800   47     320/  2/  6 1044.0
$$

LMZ867-665-643>646-252000-
LAKE MICHIGAN

STATION/POSITION TIME  TEMP    WIND        PRES    WAVE
                       AIR SEA DIR/SP/G            HT/PER
                 (UTC) (F)     (DEG/KT/KT) (MB)    (FT/S)
CHAMBERS ISLAND  1800   61     160/  9/ 15 1054.0F
N MID LAKE BUOY  1850   45 37  200/ 17/ 19 1062.0S   3/ 4
NORTHPORT PIER   1800   56     150/  8/ 15 1061.0F
KEWAUNEE LAKESHO 1800   53     190/ 12/ 19 1065.0R
SHEBOYGAN LAKESH 1900          230/ 18/ 22 1085.0S
PORT WASHINGTON  1840          230/ 12/ 25   N/A
ATWATER BUOY     1900   69 46  230/ 17/ 21   N/A
MILWAUKEE LAKESH 1900   73     250/ 18/ 27   N/A
S MID LAKE BUOY  1850   49 38  200/ 16/ 17   N/A     2/ 4
KENOSHA   LAKESH 1900   75     230/ 14/ 25   N/A
$$

TC  - TEMPERATURE IN CELSIUS
VSB - VISIBILITY IN STATUTE MILES
WCI - WIND CHILL INDEX
HX  - HEAT INDEX




USA.gov is the U.S. government's official web portal to all federal, state and local government web resources and services.